[[{"header":{"parameterUnit":"m.s-1","parameterCategory":1,"la1":30.2991,"la2":30.254,"lo1":-89.0895,"lo2":-89.0444,"dy":0.0017,"dx":0.0017,"nx":28,"ny":28,"refTime":"2023-08-11T09:00:00:Z","depth":0,"parameterNumber":2,"parameterNumberName":"U-component_of_WINDS"},"data":[0,0,0,0,0,0,0,0,0,0,0,0,0,0,0,0,0,0,0,0,0,0,0,0,0,0,0,0,0,0,0,0,0,0,0,0,0,0,0,0,0,0,0,0,0,0,0,0,0,0,0,0,0,0,0,0,0,0,5.0087,5.0088,0,5.0184,5.0186,5.0187,5.0098,5.0094,5.009,5.0087,5.0186,5.0192,5.0198,0,0,0,0,0,0,0,0,0,0,0,0,0,4.9819,4.9824,5.0086,5.0088,5.0089,5.0184,5.0186,5.0187,5.0098,5.0094,5.0089,5.0085,5.0184,5.0191,5.0199,0,0,0,0,0,0,0,0,0,0,0,0,0,4.9928,4.9826,5.0086,5.0056,5.0054,5.0184,5.0186,5.0187,5.0099,5.0094,5.0088,5.0083,5.0182,5.0191,5.02,5.0364,0,0,5.0227,5.0231,0,0,0,0,0,0,0,0,4.9922,4.9938,5.0059,5.0058,5.0057,5.0123,5.0128,5.0246,5.01,5.0082,5.0087,5.0081,5.017,5.0179,5.0209,5.0368,5.0372,5.0228,5.0233,5.0237,5.024,0,0,0,0,0,0,0,4.9914,4.9933,5.0125,5.0061,5.006,5.0037,5.0046,5.015,5.0155,5.0083,5.0077,5.009,5.0168,5.0201,5.0211,5.0374,5.0228,5.0236,5.0241,5.0245,5.0668,5.0673,0,0,0,0,0,0,4.991,4.9927,5.0122,5.0128,4.9975,5.0046,5.0056,5.0107,5.0154,5.0155,5.0094,5.0085,5.0188,5.0201,5.0214,5.0406,5.0237,5.0246,5.0251,5.0662,5.0669,5.0675,0,0,0,0,0,0,4.9905,4.9929,5.0118,5.0026,5.0048,5.0056,5.0114,5.0112,5.0145,5.0162,5.0162,5.0128,5.0185,5.0202,5.0326,5.0408,5.025,5.0258,5.0655,5.0664,5.0672,5.0793,0,0,0,0,0,0,4.9898,4.9927,4.9991,5.0028,5.0054,5.023,5.0119,5.0118,5.0161,5.015,5.0193,5.0195,5.0182,5.0313,5.0335,5.0418,5.0265,5.0647,5.0659,5.0669,5.0781,5.0804,5.0824,0,0,0,0,0,4.9889,5.0021,4.9994,5.0018,5.0133,5.0235,5.0249,5.0231,5.0168,5.0231,5.0241,5.0194,5.0396,5.0327,5.0351,5.0437,5.0642,5.0656,5.0668,5.0772,5.08,5.0824,0,0,0,0,0,0,4.9994,5.0026,4.9996,5.0146,5.0188,5.0219,5.0298,5.0262,5.0323,5.031,5.0285,5.0295,5.0426,5.0445,5.0366,5.0596,5.0509,5.0527,5.0579,5.0606,5.0627,5.0619,5.0272,0,0,0,0,0,5.0034,5.0115,5.0138,5.0268,5.029,5.0291,5.0335,5.0317,5.036,5.0377,5.0396,5.0439,5.0512,5.056,5.0629,5.0784,5.079,5.0855,5.0877,5.0894,5.091,5.0989,5.1017,5.0718,5.0718,5.0718,0,0,5.0119,5.0146,5.0199,5.0289,5.032,5.0402,5.0307,5.0399,5.0458,5.0391,5.0508,5.0525,5.057,5.071,5.0773,5.0729,5.0994,5.0911,5.0925,5.0931,5.1006,5.1034,5.1059,5.0727,5.0725,5.0724,0,0,5.0314,5.0345,5.0454,5.0486,5.0534,5.0533,5.0559,5.0596,5.0603,5.0721,5.0671,5.0742,5.0869,5.0902,5.0936,5.1141,5.1099,5.1165,5.1276,5.1353,5.1377,5.1398,5.1467,5.1493,5.1181,5.1181,5.1181,0,5.0413,5.0535,5.0514,5.0609,5.0649,5.0591,5.07,5.0732,5.08,5.0828,5.0779,5.0934,5.0962,5.1106,5.1156,5.1187,5.1213,5.1158,5.1376,5.1396,5.1415,5.1481,5.1508,5.1188,5.1187,5.1187,5.1186,0,5.0652,5.0738,5.082,5.0886,5.0935,5.1037,5.1029,5.1082,5.106,5.1063,5.1182,5.1213,5.1284,5.1318,5.1298,5.1459,5.143,5.1379,5.129,5.1451,5.1512,5.1538,5.1199,5.1196,5.1194,5.1192,0,0,5.0916,5.0967,5.0998,5.1025,5.1072,5.1137,5.1235,5.1305,5.1349,5.1397,5.1476,5.1584,5.1536,5.1574,5.1557,5.1626,5.1782,5.1566,5.1566,5.1601,5.1957,5.1993,5.2023,5.1755,5.176,5.1763,5.1952,0,5.111,5.128,5.1263,5.1423,5.15,5.1446,5.153,5.1567,5.1573,5.1638,5.1644,5.1719,5.1652,5.1674,5.174,5.1749,5.1852,5.1736,5.1825,5.1829,5.1812,5.2055,5.2094,5.227,5.1976,5.198,5.1983,0,5.1359,5.1415,5.1583,5.1615,5.1647,5.1723,5.1784,5.1848,5.1888,5.1887,5.1929,5.1899,5.1995,5.1906,5.2036,5.1957,5.1993,5.2002,5.2008,5.2014,5.1914,5.2064,5.2327,5.2352,5.2022,5.2018,5.2016,0,5.153,5.1647,5.1762,5.1788,5.183,5.1884,5.1903,5.1938,5.198,5.2033,5.2059,5.2124,5.2158,5.2207,5.2195,5.2132,5.2326,5.2237,5.2326,5.2326,5.2367,5.2364,5.2636,5.2396,5.2396,5.2396,5.2395,0,5.1746,5.1851,5.1839,5.1909,5.2023,5.2002,5.2115,5.2128,5.2159,5.2229,5.2187,5.2253,5.2234,5.23,5.2291,5.2397,5.2414,5.2414,5.241,5.2416,5.2416,5.2437,5.2423,5.2402,5.2401,5.24,5.2398,0,5.1956,5.1953,5.2073,5.2102,5.2112,5.2194,5.2218,5.2283,5.2285,5.2374,5.2394,5.2397,5.2471,5.2464,5.2549,5.2542,5.2673,5.2656,5.2659,5.2654,5.2742,5.2732,5.3034,5.3071,5.2811,5.2813,5.2816,0,5.2093,5.2171,5.2208,5.2252,5.2275,5.2347,5.2388,5.237,5.2415,5.2465,5.2524,5.2594,5.2649,5.2771,5.2779,5.2843,5.2824,5.2926,5.2833,5.2836,5.2821,5.2815,5.2821,5.2943,5.2946,5.2949,5.295,0,5.2334,5.2328,5.239,5.2452,5.2503,5.255,5.2593,5.2632,5.2617,5.267,5.2745,5.2788,5.2872,5.2942,5.3001,5.3019,5.2982,5.298,5.3003,5.3008,5.3005,5.3004,5.2705,5.2972,5.297,5.2969,5.2967,5.2966,5.2509,5.2575,5.261,5.268,5.271,5.275,5.2812,5.2821,5.2883,5.295,5.2936,5.3019,5.3054,5.313,5.3155,5.3219,5.3182,5.3216,5.3224,5.3232,5.324,5.2998,5.323,5.323,5.3229,5.3228,5.3228,0,5.2745,5.2765,5.2829,5.289,5.2944,5.2905,5.295,5.2997,5.3071,5.3107,5.3162,5.3247,5.3313,5.3327,5.339,5.3438,5.3422,5.3455,5.3449,5.3453,5.3272,5.3244,5.3466,5.3466,5.3466,5.3466,5.3466,5.3466,5.2874,5.2982,5.2979,5.3101,5.3119,5.3201,5.3229,5.3265,5.3293,5.3389,5.3444,5.3453,5.3479,5.3543,5.3601,5.3603,5.3627,5.3666,5.3661,5.3491,5.3467,5.3444,5.3417,5.3672,5.3672,5.3836,5.3837,5.3838]},{"header":{"parameterUnit":"m.s-1","parameterCategory":1,"la1":30.2991,"la2":30.254,"lo1":-89.0895,"lo2":-89.0444,"dy":0.0017,"dx":0.0017,"nx":28,"ny":28,"refTime":"2023-08-11T09:00:00:Z","depth":0,"parameterNumber":3,"parameterNumberName":"V-component_of_WINDS"},"data":[0,0,0,0,0,0,0,0,0,0,0,0,0,0,0,0,0,0,0,0,0,0,0,0,0,0,0,0,0,0,0,0,0,0,0,0,0,0,0,0,0,0,0,0,0,0,0,0,0,0,0,0,0,0,0,0,0,0,2.2727,2.2728,0,2.2817,2.2818,2.2819,2.2809,2.2807,2.2806,2.2805,2.2896,2.2899,2.2903,0,0,0,0,0,0,0,0,0,0,0,0,0,2.2546,2.2549,2.2727,2.2728,2.2729,2.2816,2.2818,2.2819,2.2809,2.2807,2.2805,2.2804,2.2894,2.2899,2.2903,0,0,0,0,0,0,0,0,0,0,0,0,0,2.2629,2.255,2.2727,2.2735,2.2736,2.2816,2.2818,2.2819,2.2809,2.2807,2.2805,2.2803,2.2893,2.2898,2.2904,2.2981,0,0,2.2921,2.2923,0,0,0,0,0,0,0,0,2.2624,2.2635,2.2733,2.2734,2.2736,2.2799,2.2787,2.2873,2.281,2.2782,2.2804,2.2802,2.2865,2.2873,2.2894,2.2985,2.2989,2.2922,2.2925,2.2927,2.2929,0,0,0,0,0,0,0,2.2618,2.2631,2.2762,2.2734,2.2736,2.2733,2.2743,2.2803,2.2834,2.2784,2.2783,2.2794,2.2866,2.2889,2.2896,2.2991,2.2921,2.2926,2.293,2.2932,2.3147,2.315,0,0,0,0,0,0,2.2611,2.2627,2.276,2.2765,2.2674,2.2738,2.2749,2.2781,2.2834,2.284,2.2796,2.2793,2.288,2.289,2.29,2.2992,2.2927,2.2933,2.2936,2.3145,2.3148,2.315,0,0,0,0,0,0,2.2607,2.2623,2.2756,2.2696,2.2713,2.2744,2.278,2.2784,2.2807,2.2843,2.2848,2.2814,2.2879,2.2892,2.2961,2.2995,2.2935,2.294,2.3142,2.3146,2.3149,2.3179,0,0,0,0,0,0,2.2602,2.2621,2.2652,2.2697,2.2716,2.2816,2.2782,2.2787,2.2817,2.2815,2.2861,2.2867,2.2878,2.2952,2.2966,2.3002,2.2945,2.3139,2.3144,2.3148,2.3175,2.3183,2.319,0,0,0,0,0,2.2595,2.2657,2.2653,2.2669,2.2755,2.2818,2.2829,2.2842,2.282,2.285,2.2872,2.2865,2.2989,2.2959,2.2975,2.3013,2.3137,2.3143,2.3148,2.3172,2.3182,2.319,0,0,0,0,0,0,2.2616,2.2663,2.266,2.2738,2.2774,2.2816,2.2855,2.2852,2.2895,2.2891,2.2904,2.2915,2.2984,2.3005,2.2971,2.309,2.306,2.3069,2.3073,2.3083,2.309,2.3084,2.2949,0,0,0,0,0,2.2629,2.2678,2.2716,2.2781,2.28,2.2824,2.2853,2.2859,2.2897,2.2912,2.294,2.2976,2.3023,2.3054,2.31,2.3178,2.3187,2.3212,2.3219,2.3225,2.3233,2.3274,2.3285,2.3168,2.3168,2.3168,0,0,2.2658,2.269,2.272,2.2786,2.2815,2.2864,2.2837,2.2891,2.2927,2.292,2.2987,2.3008,2.305,2.3123,2.3157,2.3143,2.3267,2.3232,2.3237,2.3241,2.3281,2.3292,2.3301,2.3171,2.3171,2.317,0,0,2.2735,2.2765,2.2821,2.285,2.2894,2.291,2.2923,2.2966,2.298,2.3047,2.3042,2.3085,2.3166,2.3196,2.3221,2.3307,2.3301,2.3321,2.3361,2.3401,2.341,2.3418,2.3448,2.3459,2.3328,2.3329,2.3329,0,2.2765,2.2839,2.2851,2.2905,2.2933,2.2929,2.2986,2.3013,2.307,2.3089,2.3073,2.3173,2.3202,2.3281,2.3302,2.3323,2.3338,2.3316,2.3408,2.3416,2.3424,2.3453,2.3464,2.3331,2.333,2.333,2.333,0,2.2874,2.2925,2.2965,2.3019,2.3053,2.3108,2.3127,2.3159,2.3161,2.3178,2.3245,2.3278,2.333,2.3349,2.3353,2.3429,2.3418,2.3405,2.3376,2.3437,2.3464,2.3475,2.3334,2.3333,2.3332,2.3332,0,0,2.2968,2.3026,2.3041,2.3064,2.3111,2.3151,2.3205,2.3255,2.3281,2.332,2.3365,2.3432,2.342,2.3449,2.3455,2.349,2.3555,2.3472,2.3473,2.3486,2.3639,2.3649,2.3662,2.3551,2.3553,2.3555,2.3635,0,2.3049,2.3145,2.3156,2.3241,2.3288,2.3283,2.333,2.3363,2.338,2.3421,2.3439,2.3487,2.3467,2.3484,2.3519,2.354,2.3586,2.3534,2.3592,2.3594,2.3582,2.3676,2.3687,2.3761,2.3646,2.3648,2.3649,0,2.3157,2.3198,2.3288,2.3327,2.3346,2.3388,2.3434,2.3474,2.3511,2.352,2.3552,2.3553,2.3608,2.3576,2.365,2.3615,2.3639,2.3652,2.3656,2.3662,2.3626,2.3684,2.3786,2.3796,2.3666,2.3665,2.3664,0,2.3216,2.3293,2.3356,2.3377,2.3424,2.3453,2.3474,2.3509,2.3538,2.3577,2.3596,2.3641,2.3666,2.3701,2.3714,2.3689,2.3787,2.3757,2.3796,2.3796,2.3817,2.3816,2.3924,2.3833,2.3833,2.3833,2.3833,0,2.3306,2.336,2.3383,2.3422,2.3483,2.3494,2.3554,2.3573,2.3604,2.3645,2.3644,2.3683,2.3698,2.374,2.375,2.3809,2.3821,2.3829,2.3832,2.383,2.3828,2.3846,2.3841,2.3836,2.3835,2.3835,2.3834,0,2.3382,2.3399,2.3468,2.3506,2.3517,2.356,2.3592,2.3629,2.3645,2.3697,2.371,2.3735,2.3783,2.3799,2.3858,2.3865,2.3934,2.3932,2.3921,2.3922,2.396,2.3956,2.4083,2.41,2.3998,2.3999,2.4,0,2.3438,2.348,2.3522,2.355,2.3572,2.3617,2.3646,2.3658,2.3688,2.3732,2.3763,2.3811,2.385,2.3927,2.395,2.3994,2.3993,2.4034,2.3999,2.3995,2.3992,2.399,2.3993,2.404,2.4041,2.4042,2.4043,0,2.3535,2.3541,2.3583,2.3628,2.3662,2.3698,2.3732,2.3755,2.3772,2.3805,2.3854,2.3885,2.3944,2.3991,2.4036,2.4056,2.4052,2.4054,2.4065,2.4063,2.4055,2.4059,2.3939,2.4051,2.405,2.4049,2.4049,2.4049,2.3602,2.3639,2.3674,2.372,2.3747,2.3779,2.3815,2.3834,2.3876,2.3925,2.3929,2.3982,2.4016,2.4076,2.4098,2.4139,2.4127,2.4144,2.4148,2.4152,2.4155,2.4049,2.4147,2.4147,2.4147,2.4147,2.4147,0,2.3699,2.3721,2.3763,2.3811,2.3847,2.3839,2.3877,2.3907,2.3954,2.3986,2.4024,2.4079,2.4124,2.415,2.4195,2.4222,2.4221,2.4234,2.4232,2.4236,2.4163,2.4148,2.4233,2.4233,2.4233,2.4233,2.4233,2.4233,2.3753,2.3814,2.3824,2.3898,2.3919,2.3971,2.3992,2.4021,2.4046,2.4109,2.4146,2.4162,2.4191,2.4238,2.4278,2.4285,2.4301,2.4314,2.4319,2.425,2.4241,2.4233,2.4219,2.4318,2.4318,2.4389,2.439,2.439]}]]